Weather History for Buckhannon, WV

Change the Weather History Date:

Tuesday, August 6, 2013

  Actual Average (KEKN) Record (KEKN)
Temperature  
Mean Temperature 68 °F 70 °F  
Max Temperature 80 °F 81 °F 99 °F (1918)
Min Temperature 57 °F 59 °F 43 °F (1957)
Degree Days  
Heating Degree Days 0 0  
Month to date heating degree days 0  
Since 1 June heating degree days 67  
Since 1 July heating degree days 12  
Cooling Degree Days 4 5  
Month to date cooling degree days 30  
Year to date cooling degree days 311  
Since 1 June cooling degree days 288  
Growing Degree Days 18 (Base 50)    
Moisture  
Dew Point 60 °F    
Average Humidity 78    
Maximum Humidity 100    
Minimum Humidity 45    
Precipitation  
Precipitation 0.12 in 0.13 in 2.01 in (1995)
Month to date precipitation 0.81  
Year to date precipitation 29.78  
Snow  
Snow 0.00 in - - ()
Month to date snowfall  
Since 1 September snowfall  
Snow Depth -    
Sea Level Pressure  
Sea Level Pressure 30.05 in    
Wind  
Wind Speed 0 mph (WSW)    
Max Wind Speed 6 mph    
Max Gust Speed -    
Visibility 8 miles    
Events Fog , Rain    
T = Trace of Precipitation, MM = Missing Value Source: NWS Daily Summary

Daily Weather History Graph

Daily Weather History Graph

Search for Another Location

Airport:

Trip Planner

Search our weather history database for the weather conditions in past years. The results will help you decide how hot, cold, wet, or windy it might be!

Date:

Astronomy

Aug. 06, 2013 Rise Set
Actual Time 6:26 AM EDT 8:26 PM EDT
Civil Twilight 5:57 AM EDT 8:55 PM EDT
Nautical Twilight 5:21 AM EDT 9:31 PM EDT
Astronomical Twilight 4:42 AM EDT 10:09 PM EDT
Moon 6:15 AM EDT (8/6) 8:01 PM EDT (8/6)
Length of Visible Light 14h 58m
Length of Day
14h 00m
Waning Crescent, 0% of the Moon is Illuminated
Aug 6
Waning Crescent
Aug 6
New
Aug 14
First Quarter
Aug 20
Full
Aug 28
Last Quarter

Hourly Weather History & Observations

Time (EDT) Temp. Heat Index Dew Point Humidity Pressure Visibility Wind Dir Wind Speed Gust Speed Precip Events Conditions
12:15 AM 60.8 °F - 60.8 °F 100% 30.05 in 10.0 mi Calm Calm - N/A   Clear
12:35 AM 60.8 °F - 60.8 °F 100% 30.06 in 10.0 mi Calm Calm - N/A   Clear
12:55 AM 60.8 °F - 60.8 °F 100% 30.05 in 10.0 mi Calm Calm - N/A   Partly Cloudy
1:15 AM 60.8 °F - 60.8 °F 100% 30.05 in 10.0 mi Calm Calm - N/A   Clear
1:35 AM 62.6 °F - 60.8 °F 94% 30.05 in 10.0 mi Calm Calm - N/A   Clear
1:55 AM 60.8 °F - 60.8 °F 100% 30.06 in 10.0 mi Calm Calm - N/A Rain Light Rain
2:15 AM 60.8 °F - 60.8 °F 100% 30.05 in 8.0 mi Calm Calm - N/A Rain Light Rain
2:35 AM 60.8 °F - 60.8 °F 100% 30.05 in 4.0 mi Calm Calm - 0.02 in Rain Light Rain
2:55 AM 60.8 °F - 60.8 °F 100% 30.05 in 5.0 mi Calm Calm - 0.06 in Rain Rain
3:15 AM 60.8 °F - 60.8 °F 100% 30.05 in 3.0 mi Calm Calm - 0.01 in Rain Light Rain
3:35 AM 60.8 °F - 60.8 °F 100% 30.05 in 4.0 mi Calm Calm - 0.04 in Rain Light Rain
3:55 AM 60.8 °F - 60.8 °F 100% 30.04 in 0.2 mi Calm Calm - 0.06 in Rain Light Rain
4:15 AM 60.8 °F - 60.8 °F 100% 30.04 in 0.5 mi Calm Calm - N/A   Light Drizzle
4:35 AM 60.8 °F - 60.8 °F 100% 30.04 in 0.8 mi Calm Calm - N/A   Overcast
4:55 AM 60.8 °F - 60.8 °F 100% 30.05 in 3.0 mi Calm Calm - N/A   Scattered Clouds
5:15 AM 60.8 °F - 60.8 °F 100% 30.05 in 8.0 mi Calm Calm - N/A   Clear
5:35 AM 59.0 °F - 59.0 °F 100% 30.05 in 10.0 mi Calm Calm - N/A   Clear
5:55 AM 59.0 °F - 59.0 °F 100% 30.05 in 8.0 mi Calm Calm - N/A   Clear
6:15 AM 59.0 °F - 59.0 °F 100% 30.05 in 0.2 mi Calm Calm - N/A Fog Fog
6:35 AM 59.0 °F - 59.0 °F 100% 30.04 in 0.2 mi Calm Calm - N/A Fog Fog
6:55 AM 57.2 °F - 57.2 °F 100% 30.05 in 8.0 mi Calm Calm - N/A   Clear
7:15 AM 59.0 °F - 59.0 °F 100% 30.05 in 0.5 mi Calm Calm - N/A Fog Fog
7:35 AM 60.8 °F - 60.8 °F 100% 30.06 in 0.5 mi Calm Calm - N/A Fog Fog
7:55 AM 59.0 °F - 59.0 °F 100% 30.06 in 0.2 mi Calm Calm - N/A Fog Fog
8:15 AM 60.8 °F - 60.8 °F 100% 30.06 in 10.0 mi Calm Calm - N/A   Clear
8:35 AM 64.4 °F - 62.6 °F 94% 30.07 in 10.0 mi Calm Calm - N/A   Clear
8:55 AM 66.2 °F - 62.6 °F 88% 30.07 in 10.0 mi Calm Calm - N/A   Clear
9:15 AM 66.2 °F - 62.6 °F 88% 30.07 in 10.0 mi Calm Calm - N/A   Clear
9:35 AM 68.0 °F - 60.8 °F 78% 30.07 in 10.0 mi Calm Calm - N/A   Clear
9:55 AM 68.0 °F - 57.2 °F 68% 30.08 in 10.0 mi Calm Calm - N/A   Clear
10:15 AM 69.8 °F - 55.4 °F 60% 30.08 in 10.0 mi Calm Calm - N/A   Clear
10:35 AM 69.8 °F - 57.2 °F 64% 30.08 in 10.0 mi Calm Calm - N/A   Clear
10:55 AM 71.6 °F - 57.2 °F 60% 30.08 in 10.0 mi Calm Calm - N/A   Clear
11:15 AM 71.6 °F - 59.0 °F 64% 30.08 in 10.0 mi Calm Calm - N/A   Clear
11:35 AM 73.4 °F - 57.2 °F 57% 30.07 in 10.0 mi Calm Calm - N/A   Clear
11:55 AM 73.4 °F - 57.2 °F 57% 30.07 in 10.0 mi Calm Calm - N/A   Clear
12:15 PM 73.4 °F - 55.4 °F 53% 30.07 in 10.0 mi Calm Calm - N/A   Clear
12:35 PM 73.4 °F - 55.4 °F 53% 30.06 in 10.0 mi Calm Calm - N/A   Clear
12:55 PM 75.2 °F - 57.2 °F 53% 30.06 in 10.0 mi Calm Calm - N/A   Clear
1:15 PM 75.2 °F - 55.4 °F 50% 30.06 in 10.0 mi Calm Calm - N/A   Clear
1:35 PM 75.2 °F - 55.4 °F 50% 30.06 in 10.0 mi Calm Calm - N/A   Clear
1:55 PM 75.2 °F - 57.2 °F 53% 30.06 in 10.0 mi WSW 4.6 mph - N/A   Clear
2:15 PM 77.0 °F - 55.4 °F 47% 30.05 in 10.0 mi Calm Calm - N/A   Clear
2:35 PM 77.0 °F - 57.2 °F 50% 30.05 in 10.0 mi West 5.8 mph - N/A   Clear
2:55 PM 78.8 °F - 57.2 °F 47% 30.05 in 10.0 mi Calm Calm - N/A   Clear
3:15 PM 78.8 °F - 60.8 °F 54% 30.06 in 10.0 mi Calm Calm - N/A   Clear
3:35 PM 78.8 °F - 60.8 °F 54% 30.06 in 10.0 mi Calm Calm - N/A   Clear
3:55 PM 78.8 °F - 59.0 °F 51% 30.05 in 10.0 mi Calm Calm - N/A   Clear
4:15 PM 78.8 °F - 60.8 °F 54% 30.03 in 10.0 mi Calm Calm - N/A   Clear
4:35 PM 78.8 °F - 57.2 °F 47% 30.03 in 10.0 mi Calm Calm - N/A   Clear
4:55 PM 80.6 °F 80.8 °F 57.2 °F 45% 30.03 in 10.0 mi Calm Calm - N/A   Clear
5:15 PM 80.6 °F 81.1 °F 59.0 °F 48% 30.03 in 10.0 mi SW 3.5 mph - N/A   Clear
5:35 PM 80.6 °F 81.5 °F 60.8 °F 51% 30.04 in 10.0 mi West 3.5 mph - N/A   Clear
5:55 PM 78.8 °F - 60.8 °F 54% 30.04 in 10.0 mi Calm Calm - N/A   Clear
6:15 PM 78.8 °F - 60.8 °F 54% 30.04 in 10.0 mi West 3.5 mph - N/A   Clear
6:35 PM 77.0 °F - 60.8 °F 57% 30.04 in 10.0 mi Calm Calm - N/A   Clear
6:55 PM 78.8 °F - 60.8 °F 54% 30.04 in 10.0 mi Calm Calm - N/A   Clear
7:15 PM 78.8 °F - 60.8 °F 54% 30.03 in 10.0 mi Calm Calm - N/A   Clear
7:35 PM 75.2 °F - 62.6 °F 65% 30.03 in 10.0 mi Calm Calm - N/A   Clear
7:55 PM 73.4 °F - 62.6 °F 69% 30.03 in 10.0 mi Calm Calm - N/A   Clear
8:15 PM 71.6 °F - 64.4 °F 78% 30.03 in 10.0 mi Calm Calm - N/A   Clear
8:35 PM 71.6 °F - 64.4 °F 78% 30.03 in 10.0 mi Calm Calm - N/A   Clear
8:55 PM 69.8 °F - 64.4 °F 83% 30.04 in 10.0 mi Calm Calm - N/A   Clear
9:15 PM 69.8 °F - 64.4 °F 83% 30.04 in 10.0 mi Calm Calm - N/A   Clear
9:35 PM 68.0 °F - 64.4 °F 88% 30.04 in 10.0 mi Calm Calm - N/A   Clear
9:55 PM 66.2 °F - 64.4 °F 94% 30.04 in 10.0 mi Calm Calm - N/A   Clear
10:15 PM 66.2 °F - 64.4 °F 94% 30.04 in 10.0 mi Calm Calm - N/A   Clear
10:35 PM 66.2 °F - 64.4 °F 94% 30.04 in 10.0 mi Calm Calm - N/A   Clear
10:55 PM 64.4 °F - 64.4 °F 100% 30.04 in 10.0 mi Calm Calm - N/A   Clear
11:15 PM 66.2 °F - 64.4 °F 94% 30.04 in 10.0 mi Calm Calm - N/A   Clear
11:35 PM 66.2 °F - 64.4 °F 94% 30.04 in 10.0 mi Calm Calm - N/A   Clear
11:55 PM 66.2 °F - 64.4 °F 94% 30.04 in 10.0 mi Calm Calm - N/A   Partly Cloudy